Location: Newark
(45.5167°N, 11.1667°E)
Time: 13:44:29
(UTC+00:00)

Courier 1B - Visible Passes

Search period start: 07 December 2019 00:00
Search period end: 17 December 2019 00:00
Orbit: 963 x 1209 km, 28.3° (Epoch: 06 December)

Date Brightness Start Highest point End Pass type
(mag) Time Alt. Az. Time Alt. Az. Time Alt. Az.
13 Dec 10.0 19:14:18 10° SSW 19:14:40 11° SSW 19:14:40 11° SSW visible
14 Dec 9.7 18:21:55 10° S 18:24:17 12° SSE 18:24:17 12° SSE visible
15 Dec 9.8 19:19:27 10° SSW 19:20:48 14° SSW 19:20:48 14° SSW visible
16 Dec 9.5 18:26:30 10° SSW 18:30:24 16° SSE 18:30:24 16° SSE visible
